Flag for Switzerland Weather past 2 weeks in Regensdorf, Zurich, Switzerland

Now
45 °F

Cool.


Feels Like: 39 °F
Forecast: 36 / 61 °F
Wind: 12 mph from Northeast

Location: Zurich-Kloten

Current Time: Apr 18, 2015 at 11:32:32 PM

Latest Report: Apr 18, 2015 at 10:00 PM


Visibility: N/A

Pressure: 30.18 "Hg

Humidity: 49%

Dew point: 27 °F

Location of RegensdorfLocation

Historic Weather in Regensdorf — Graph

°F

Regensdorf temperature yesterday

Maximum temperature yesterday: 56 °F (at 1:00 PM)
Minimum temperature yesterday: 51 °F (at 11:00 PM)
Average temperature yesterday: 54 °F

Past Weeks' High & Low Weather Summary

 TemperatureHumidityPressure
High74 °F (Apr 15, 4:00 PM)97% (Apr 10, 7:00 AM)30.62 "Hg (Apr 10, 7:00 AM)
Low26 °F (Apr 8, 6:00 AM)18% (Apr 8, 3:00 PM)29.85 "Hg (Apr 4, 5:00 PM)
Average50 °F62%30.25 "Hg
* Reported Apr 3 10:00 PM — Apr 18 10:00 PM, Regensdorf, Weather by CustomWeather, © 2015

Note: Actual official high and low records may vary slightly from our data, if they occured in-between our weather recording intervals... More about our weather records

Advertising

Regensdorf weather history for previous 24 hours

 ConditionsComfort  
Time TempWeatherWind HumidityBarometerVisibility
10:00 PM
Sat, Apr 18
45 °FCool.12 mph49%30.18 "HgN/A
9:00 PM46 °FCool.13 mph48%30.17 "HgN/A
8:00 PM49 °FCool.12 mph41%30.16 "HgN/A
7:00 PM51 °FCool.14 mph39%30.16 "HgN/A
6:00 PM52 °FCool.18 mph41%30.16 "HgN/A
5:00 PM53 °FCool.17 mph40%30.16 "HgN/A
4:00 PM53 °FCool.17 mph40%30.17 "HgN/A
3:00 PM53 °FCool.18 mph42%30.17 "HgN/A
2:00 PM52 °FCool.17 mph46%30.19 "HgN/A
1:00 PM51 °FCool.17 mph50%30.19 "HgN/A
12:00 PM49 °FCool.18 mph54%30.20 "HgN/A
11:00 AM49 °FCool.16 mph57%30.19 "HgN/A
10:00 AM47 °FCool.15 mph65%30.17 "HgN/A
9:00 AM45 °FQuite cool.9 mph74%30.17 "HgN/A
8:00 AM43 °FPartly sunny.9 mph81%30.17 "Hg9 mi
7:00 AM43 °FQuite cool.6 mph82%30.15 "HgN/A
6:00 AM43 °FQuite cool.7 mph86%30.14 "HgN/A
4:00 AM46 °FCool.6 mph86%30.10 "HgN/A
3:00 AM47 °FCool.6 mph85%30.10 "HgN/A
2:00 AM47 °FLight rain. Low clouds.2 mph81%30.09 "Hg6 mi
1:00 AM49 °FCool.18 mph81%30.06 "HgN/A
12:00 AM50 °FCool.3 mph94%30.04 "HgN/A
11:00 PM
Fri, Apr 17
51 °FRain. Low clouds.2 mph90%30.03 "Hg4 mi
Weather by CustomWeather, © 2015

See weather overviewHow to use our weather pages